User: anonymous   Login
Location: Mentone
(34.5413°N, 85.5351°W)
Time: 23:45:02
(UTC-06:00)
Language:

Uosat F - Orbit

View from above orbital plane
View from above orbital plane
View from above satellite
View from above satellite

Ground track
Ground track

The orbit data is extracted from the following two-line orbital elements,

1 21575U 91050B   15025.96803190  .00000154  00000-0  62966-4 0  2260
2 21575 098.7261 011.1603 0007565 027.9039 036.9741 14.40542586235559
Epoch (UTC): 25 January 2015 23:13:57
Eccentricity: 0.0007565
inclination: 98.7261°
perigee height: 751 km
apogee height: 762 km
right ascension of ascending node: 11.1603°
argument of perigee: 27.9039°
revolutions per day: 14.40542586
mean anomaly at epoch: 36.9741°
orbit number at epoch: 23555

The dashed part of the orbit path shows where the satellite is in the earth's shadow,  

DLR